Weather History for KTLH - May, 2012

Change the Weather History Date:

Wednesday, May 30, 2012

  Actual Average Record
Temperature  
Mean Temperature 84 °F 78 °F  
Max Temperature 97 °F 90 °F 99 °F (1937)
Min Temperature 71 °F 66 °F 49 °F (1971)
Degree Days  
Heating Degree Days 0    
Month to date heating degree days 0  
Since 1 July heating degree days 1055  
Cooling Degree Days 19    
Month to date cooling degree days 389  
Year to date cooling degree days 759  
Growing Degree Days 34 (Base 50)    
Moisture  
Dew Point 66 °F    
Average Humidity 62    
Maximum Humidity 93    
Minimum Humidity 30    
Precipitation  
Precipitation 0.07 in 0.17 in 2.47 in (1977)
Month to date precipitation 4.30 3.31  
Year to date precipitation 16.92 21.50  
Sea Level Pressure  
Sea Level Pressure 29.83 in    
Wind  
Wind Speed 6 mph (WNW)    
Max Wind Speed 22 mph    
Max Gust Speed 31 mph    
Visibility 10 miles    
Events Thunderstorm    
T = Trace of Precipitation, MM = Missing Value Source: NWS Daily Summary

Daily Weather History Graph

Daily Weather History Graph

Search for Another Location

Airport or City:

Trip Planner

Search our weather history database for the weather conditions in past years. The results will help you decide how hot, cold, wet, or windy it might be!

Date:

Astronomy

May. 30, 2012 Rise Set
Actual Time 6:36 AM EDT 8:34 PM EDT
Civil Twilight 6:09 AM EDT 9:01 PM EDT
Nautical Twilight 5:36 AM EDT 9:34 PM EDT
Astronomical Twilight 5:01 AM EDT 10:09 PM EDT
Moon 3:30 PM EDT (5/30) 2:39 AM EDT (5/30)
Length of Visible Light 14h 52m
Length of Day
13h 57m
Waxing Gibbous, 70% of the Moon is Illuminated
May 30
Waxing Gibbous
Jun 4
Full
Jun 11
Last Quarter
Jun 19
New
Jun 26
First Quarter

Hourly Weather History & Observations

Time (EDT) Temp. Heat Index Dew Point Humidity Pressure Visibility Wind Dir Wind Speed Gust Speed Precip Events Conditions
12:53 AM 75.0 °F - 69.1 °F 82% 29.83 in 10.0 mi Calm Calm - N/A   Clear
1:53 AM 73.9 °F - 69.1 °F 85% 29.82 in 10.0 mi Calm Calm - N/A   Clear
2:53 AM 73.9 °F - 70.0 °F 87% 29.81 in 9.0 mi Calm Calm - N/A   Clear
3:53 AM 73.9 °F - 71.1 °F 91% 29.80 in 7.0 mi Calm Calm - N/A   Clear
4:53 AM 73.9 °F - 71.1 °F 91% 29.81 in 6.0 mi NW 4.6 mph - N/A   Partly Cloudy
5:36 AM 77.0 °F - 66.2 °F 69% 29.83 in 10.0 mi NNW 10.4 mph - N/A Thunderstorm Thunderstorm
5:53 AM 77.0 °F - 64.9 °F 66% 29.86 in 10.0 mi NNW 19.6 mph 25.3 mph N/A Thunderstorm Thunderstorm
6:53 AM 72.0 °F - 68.0 °F 87% 29.86 in 10.0 mi Calm Calm - 0.06 in Thunderstorm Thunderstorm
7:45 AM 71.6 °F - 68.0 °F 88% 29.88 in 10.0 mi Calm Calm - 0.01 in   Scattered Clouds
7:53 AM 72.0 °F - 69.1 °F 91% 29.89 in 10.0 mi Calm Calm - 0.01 in   Scattered Clouds
8:06 AM 71.6 °F - 69.8 °F 94% 29.88 in 10.0 mi South 3.5 mph - N/A   Scattered Clouds
8:53 AM 73.0 °F - 68.0 °F 84% 29.88 in 10.0 mi West 3.5 mph - N/A   Scattered Clouds
9:53 AM 77.0 °F - 69.1 °F 76% 29.87 in 10.0 mi West 6.9 mph - N/A   Clear
10:53 AM 82.0 °F 85.5 °F 69.1 °F 65% 29.86 in 10.0 mi West 6.9 mph - N/A   Clear
11:53 AM 88.0 °F 91.4 °F 68.0 °F 51% 29.86 in 10.0 mi West 8.1 mph - N/A   Clear
12:53 PM 91.9 °F 94.1 °F 64.9 °F 41% 29.85 in 10.0 mi NNW 13.8 mph 17.3 mph N/A   Clear
1:53 PM 95.0 °F 96.0 °F 63.0 °F 34% 29.83 in 10.0 mi NW 11.5 mph - N/A   Partly Cloudy
2:53 PM 96.1 °F 96.9 °F 62.1 °F 32% 29.81 in 10.0 mi WNW 10.4 mph 18.4 mph N/A   Scattered Clouds
3:53 PM 95.0 °F 95.2 °F 61.0 °F 32% 29.80 in 10.0 mi NW 11.5 mph 18.4 mph N/A   Partly Cloudy
4:53 PM 95.0 °F 94.4 °F 59.0 °F 30% 29.78 in 10.0 mi Variable 4.6 mph - N/A   Scattered Clouds
5:53 PM 96.1 °F 97.3 °F 63.0 °F 33% 29.78 in 10.0 mi West 8.1 mph 19.6 mph N/A   Scattered Clouds
6:53 PM 91.0 °F 93.8 °F 66.0 °F 44% 29.77 in 10.0 mi West 13.8 mph - N/A   Partly Cloudy
7:53 PM 84.9 °F 84.8 °F 60.1 °F 43% 29.80 in 10.0 mi WSW 15.0 mph - N/A   Partly Cloudy
8:53 PM 82.0 °F 83.1 °F 63.0 °F 52% 29.81 in 10.0 mi Calm Calm - N/A   Partly Cloudy
9:53 PM 78.1 °F - 64.9 °F 64% 29.83 in 10.0 mi Calm Calm - N/A   Partly Cloudy
10:53 PM 75.9 °F - 64.9 °F 69% 29.84 in 10.0 mi Calm Calm - N/A   Clear
11:53 PM 75.0 °F - 64.9 °F 71% 29.86 in 10.0 mi Calm Calm - N/A   Clear